Location: Baili�vre
(50.0696°N, 4.2409°E)
Time: 20:17:45
(UTC+00:00)

Tiangong - Visible Passes

Search period start: 24 January 2022 00:00
Search period end: 03 February 2022 00:00
Orbit: 383 x 386 km, 41.5° (Epoch: 23 January)

Date Brightness Start Highest point End Pass type
(mag) Time Alt. Az. Time Alt. Az. Time Alt. Az.
29 Jan 3.7 18:01:48 10° S 18:02:34 11° SSE 18:03:20 10° SE visible
30 Jan 3.4 18:36:58 10° SSW 18:38:41 16° S 18:38:41 16° S visible
31 Jan 3.6 17:37:43 10° SSW 17:39:25 14° SSE 17:41:06 10° SE visible
31 Jan 4.0 19:13:21 10° SW 19:13:56 13° SW 19:13:56 13° SW visible
01 Feb 3.2 18:13:40 10° SW 18:15:52 17° S 18:16:57 15° SSE visible
02 Feb 3.5 17:14:07 10° SSW 17:16:11 16° S 17:18:14 10° SE visible
02 Feb 3.5 18:50:17 10° SW 18:52:10 16° SSW 18:52:10 16° SSW visible
